EW5209 Weather Reports


Display with metric or nautical units.
time (UTC)temp
F
wind
direction
speed
MPH
gust
MPH
rain 1hr
in
rain 24hr
in
rain mn
in
humidity
%
barometer
mb
20260508181246 74 113 1.0 6.0 0.00 0.00 0.00 73 1011.4
20260508180747 74 143 0.0 7.0 0.00 0.00 0.00 72 1011.5
20260508180244 73 100 1.0 7.0 0.00 0.00 0.00 72 1011.8
20260508175744 73 127 2.0 9.0 0.00 0.00 0.00 72 1011.9
20260508175244 73 108 2.0 9.0 0.00 0.00 0.00 71 1012.0
20260508174742 73 102 2.0 9.0 0.00 0.00 0.00 72 1012.0
20260508174243 73 120 2.0 9.0 0.00 0.00 0.00 70 1012.0
20260508173745 73 124 1.0 6.0 0.00 0.00 0.00 69 1012.1
20260508173739 73 150 1.0 6.0 0.00 0.00 0.00 70 1012.1
20260508172741 73 120 1.0 6.0 0.00 0.00 0.00 71 1012.2
20260508172241 72 129 2.0 6.0 0.00 0.00 0.00 71 1012.3
20260508171741 72 133 2.0 5.0 0.00 0.00 0.00 72 1012.5
20260508171241 72 110 1.0 5.0 0.00 0.00 0.00 71 1012.5
20260508170740 72 117 1.0 8.0 0.00 0.00 0.00 71 1012.6
20260508170241 71 125 2.0 8.0 0.00 0.00 0.00 72 1012.6
20260508165741 71 126 3.0 8.0 0.00 0.00 0.00 71 1012.6
20260508165239 71 79 4.0 8.0 0.00 0.00 0.00 71 1012.7
20260508164740 71 75 3.0 8.0 0.00 0.00 0.00 72 1012.8
20260508164239 71 107 3.0 8.0 0.00 0.00 0.00 73 1012.9
20260508163738 71 60 3.0 7.0 0.00 0.00 0.00 74 1013.1
20260508163238 71 86 2.0 7.0 0.00 0.00 0.00 74 1013.4
20260508162737 70 127 2.0 7.0 0.00 0.00 0.00 75 1013.4
20260508162237 70 65 2.0 7.0 0.00 0.00 0.00 76 1013.5
20260508161735 69 100 3.0 7.0 0.00 0.00 0.00 75 1013.6
20260508161234 70 101 2.0 5.0 0.00 0.00 0.00 75 1013.7
20260508160731 70 128 2.0 5.0 0.00 0.00 0.00 75 1013.7
20260508160232 70 114 2.0 5.0 0.00 0.00 0.00 75 1013.7
20260508155733 70 88 1.0 5.0 0.00 0.00 0.00 74 1013.8
20260508155233 70 104 1.0 5.0 0.00 0.00 0.00 75 1013.8
20260508154729 70 117 1.0 5.0 0.00 0.00 0.00 75 1013.9
20260508154226 70 110 1.0 3.0 0.00 0.00 0.00 75 1014.0
20260508153726 70 77 1.0 5.0 0.00 0.00 0.00 75 1014.0
20260508153226 70 78 1.0 5.0 0.00 0.00 0.00 74 1014.0
20260508152726 70 95 1.0 3.0 0.00 0.00 0.00 74 1014.0
20260508152227 70 82 1.0 4.0 0.00 0.00 0.00 74 1014.1
20260508151731 70 117 1.0 6.0 0.00 0.00 0.00 74 1014.3
20260508151724 70 139 1.0 4.0 0.00 0.00 0.00 73 1014.1
20260508151224 70 125 1.0 6.0 0.00 0.00 0.00 73 1014.2
20260508150224 69 131 2.0 6.0 0.00 0.00 0.00 74 1014.2
20260508145723 69 122 2.0 6.0 0.00 0.00 0.00 74 1014.2
20260508145224 69 121 2.0 6.0 0.00 0.00 0.00 75 1014.2
20260508144724 68 44 3.0 6.0 0.00 0.00 0.00 75 1014.2
20260508144223 68 84 3.0 6.0 0.00 0.00 0.00 74 1014.2
20260508143729 68 77 2.0 6.0 0.00 0.00 0.00 75 1014.2
20260508143724 68 101 3.0 6.0 0.00 0.00 0.00 75 1014.2
20260508142723 68 85 2.0 6.0 0.00 0.00 0.00 77 1014.2
20260508142224 67 63 2.0 7.0 0.00 0.00 0.00 77 1014.2
20260508141723 67 72 2.0 7.0 0.00 0.00 0.00 76 1014.1
20260508141224 67 72 2.0 5.0 0.00 0.00 0.00 76 1014.1
20260508140723 67 108 1.0 6.0 0.00 0.00 0.00 76 1014.1
20260508140220 67 96 2.0 6.0 0.00 0.00 0.00 78 1014.2
20260508135725 66 117 1.0 4.0 0.00 0.00 0.00 79 1014.6
20260508135718 66 96 2.0 6.0 0.00 0.00 0.00 78 1014.3
20260508135218 66 100 2.0 6.0 0.00 0.00 0.00 78 1014.5
20260508134718 66 96 2.0 5.0 0.00 0.00 0.00 78 1014.6
20260508133716 65 68 1.0 4.0 0.00 0.00 0.00 81 1014.6
20260508133215 65 64 1.0 5.0 0.00 0.00 0.00 80 1014.6
20260508132716 65 113 1.0 5.0 0.00 0.00 0.00 82 1014.6
20260508132215 65 67 0.0 2.0 0.00 0.00 0.00 81 1014.6
20260508131716 65 80 0.0 2.0 0.00 0.00 0.00 83 1014.6
20260508131217 64 122 0.0 0.0 0.00 0.00 0.00 84 1014.7
20260508130715 64 23 0.0 0.0 0.00 0.00 0.00 84 1014.6
20260508130217 63 315 0.0 0.0 0.00 0.00 0.00 85 1014.7
20260508125720 62 314 0.0 0.0 0.00 0.00 0.00 84 1014.3
20260508125715 63 314 0.0 0.0 0.00 0.00 0.00 85 1014.5
20260508124714 62 77 0.0 1.0 0.00 0.00 0.00 81 1014.3
20260508124214 61 77 0.0 1.0 0.00 0.00 0.00 80 1014.3
20260508123714 60 302 0.0 3.0 0.00 0.00 0.00 77 1014.3
20260508123215 60 69 0.0 3.0 0.00 0.00 0.00 76 1014.0
20260508122712 0 0.0 0.0 0.00 0.00 0.00 1014.0
20260508122208 0 0.0 0.0 0.00 0.00 0.00 1014.2
20260508121619 0 0.0 0.0 0.00 0.00 0.00 1014.1
20260508121614 0 0.0 0.0 0.00 0.00 0.00 1014.0
20260508121021 0 0.0 0.0 0.00 0.00 0.00 1014.0
20260508120625 0 0.0 0.0 0.00 0.00 0.00 1014.1
20260508115515 0 0.0 0.0 0.00 0.00 0.00 1013.9
20260508114917 0 0.0 0.0 0.00 0.00 0.00 1014.0
20260508114421 0 0.0 0.0 0.00 0.00 0.00 1014.1
20260508114417 0 0.0 0.0 0.00 0.00 0.00 1014.1
20260508113412 0 0.0 0.0 0.00 0.00 0.00 1014.2
20260508112912 0 0.0 0.0 0.00 0.00 0.00 1014.3
20260508112318 0 0.0 0.0 0.00 0.00 0.00 1014.3
20260508111814 0 0.0 0.0 0.00 0.00 0.00 1014.4
20260508111302 0 0.0 0.0 0.00 0.00 0.00 1014.2
20260508110715 0 0.0 0.0 0.00 0.00 0.00 1014.3
20260508110210 0 0.0 0.0 0.00 0.00 0.00 1014.4
20260508105618 0 0.0 0.0 0.00 0.00 0.00 1014.4
20260508105117 0 0.0 0.0 0.00 0.00 0.00 1014.3
20260508104619 0 0.0 0.0 0.00 0.00 0.00 1014.2
20260508104118 0 0.0 0.0 0.00 0.00 0.00 1014.0
20260508104111 0 0.0 0.0 0.00 0.00 0.00 1013.8
20260508103519 0 0.0 0.0 0.00 0.00 0.00 1013.6
20260508102519 0 0.0 0.0 0.00 0.00 0.00 1013.7
20260508102021 0 0.0 0.0 0.00 0.00 0.00 1013.8
20260508102016 0 0.0 0.0 0.00 0.00 0.00 1013.7
20260508100922 0 0.0 0.0 0.00 0.00 0.00 1013.8
20260508100918 0 0.0 0.0 0.00 0.00 0.00 1013.7
20260508095915 0 0.0 0.0 0.00 0.00 0.00 1013.9
20260508095420 59 113 0.0 0.0 0.00 0.00 0.00 76 1014.0
20260508095415 59 113 0.0 0.0 0.00 0.00 0.00 76 1014.0
20260508094344 59 113 0.0 0.0 0.00 0.00 0.00 76 1014.1
20260508093847 59 113 0.0 0.0 0.00 0.00 0.00 76 1014.3
20260508093345 59 116 0.0 0.0 0.00 0.00 0.00 76 1014.3
20260508092844 60 117 0.0 0.0 0.00 0.00 0.00 76 1014.3
20260508092351 60 117 0.0 0.0 0.00 0.00 0.00 78 1014.2
20260508092347 60 117 0.0 0.0 0.00 0.00 0.00 77 1014.2
20260508092004 60 117 0.0 0.0 0.00 0.00 0.00 79 1014.1
20260508090847 60 117 0.0 0.0 0.00 0.00 0.00 80 1014.3
20260508090345 60 117 0.0 0.0 0.00 0.00 0.00 80 1014.2
20260508085846 60 116 0.0 0.0 0.00 0.00 0.00 80 1014.3
20260508085348 60 117 0.0 0.0 0.00 0.00 0.00 81 1014.3
20260508085343 60 117 0.0 0.0 0.00 0.00 0.00 80 1014.3
20260508084341 60 117 0.0 0.0 0.00 0.00 0.00 82 1014.5
20260508083842 60 117 0.0 0.0 0.00 0.00 0.00 82 1014.5
20260508083341 60 117 0.0 0.0 0.00 0.00 0.00 82 1014.5
20260508082840 60 117 0.0 0.0 0.00 0.00 0.00 82 1014.7
20260508082342 60 117 0.0 0.0 0.00 0.00 0.00 82 1014.8
20260508081842 60 117 0.0 0.0 0.00 0.00 0.00 81 1014.8
20260508081341 60 117 0.0 0.0 0.00 0.00 0.00 80 1015.0
20260508080841 60 117 0.0 0.0 0.00 0.00 0.00 79 1015.1
20260508080342 60 117 0.0 0.0 0.00 0.00 0.00 78 1015.1
20260508075841 60 117 0.0 0.0 0.00 0.00 0.00 77 1015.0
20260508075341 60 117 0.0 0.0 0.00 0.00 0.00 76 1014.9
20260508074839 59 117 0.0 0.0 0.00 0.00 0.00 78 1014.7
20260508074336 59 117 0.0 0.0 0.00 0.00 0.00 79 1014.7
20260508073836 59 117 0.0 0.0 0.00 0.00 0.00 81 1014.6
20260508073335 59 117 0.0 0.0 0.00 0.00 0.00 81 1014.5
20260508072836 60 117 0.0 0.0 0.00 0.00 0.00 81 1014.5
20260508072335 60 117 0.0 0.0 0.00 0.00 0.00 80 1014.4
20260508071833 60 117 0.0 0.0 0.00 0.00 0.00 79 1014.4
20260508071331 60 117 0.0 0.0 0.00 0.00 0.00 79 1014.4
20260508070837 60 117 0.0 0.0 0.00 0.00 0.00 79 1014.6
20260508070331 60 117 0.0 0.0 0.00 0.00 0.00 79 1014.7
20260508065836 60 117 0.0 0.0 0.00 0.00 0.00 79 1015.0
20260508065830 60 117 0.0 0.0 0.00 0.00 0.00 79 1014.9
20260508065447 59 117 0.0 0.0 0.00 0.00 0.00 80 1015.0
20260508064330 60 117 0.0 0.0 0.00 0.00 0.00 80 1015.0
20260508063834 60 117 0.0 0.0 0.00 0.00 0.00 80 1015.3
20260508063829 60 117 0.0 0.0 0.00 0.00 0.00 80 1015.2
20260508062828 60 117 0.0 0.0 0.00 0.00 0.00 80 1015.3
20260508062329 60 117 0.0 0.0 0.00 0.00 0.00 80 1015.2
20260508061835 60 117 0.0 0.0 0.00 0.00 0.00 80 1015.3
20260508061829 60 117 0.0 0.0 0.00 0.00 0.00 80 1015.2
20260508060828 60 117 0.0 0.0 0.00 0.00 0.00 80 1015.3
20260508060329 60 117 0.0 0.0 0.00 0.00 0.00 81 1015.4
20260508055828 60 117 0.0 0.0 0.00 0.00 0.00 81 1015.4
20260508055334 60 117 0.0 0.0 0.00 0.00 0.00 81 1015.6
20260508055330 60 117 0.0 0.0 0.00 0.00 0.00 81 1015.4
20260508054330 60 117 0.0 0.0 0.00 0.00 0.00 82 1015.5
20260508053830 60 117 0.0 0.0 0.00 0.00 0.00 82 1015.6
20260508053325 60 117 0.0 0.0 0.00 0.00 0.00 83 1015.4
20260508052825 60 117 0.0 0.0 0.00 0.00 0.00 83 1015.4
20260508052324 60 117 0.0 0.0 0.00 0.00 0.00 84 1015.4
20260508051820 60 117 0.0 0.0 0.00 0.00 0.00 84 1015.3
20260508051326 60 117 0.0 0.0 0.00 0.00 0.00 84 1015.2
20260508051320 60 117 0.0 0.0 0.00 0.00 0.00 84 1015.3
20260508050317 60 117 0.0 0.0 0.00 0.00 0.00 84 1015.4
20260508045818 61 117 0.0 0.0 0.00 0.00 0.00 84 1015.4
20260508045317 61 117 0.0 0.0 0.00 0.00 0.00 84 1015.3
20260508044818 61 117 0.0 0.0 0.00 0.00 0.00 84 1015.3
20260508044315 61 117 0.0 0.0 0.00 0.00 0.00 84 1015.6
20260508043816 62 117 0.0 0.0 0.00 0.00 0.00 84 1015.5
20260508043315 62 117 0.0 0.0 0.00 0.00 0.00 84 1015.3
20260508042816 62 117 0.0 0.0 0.00 0.00 0.00 84 1015.5
20260508042316 62 117 0.0 0.0 0.00 0.00 0.00 83 1015.6
20260508041817 63 117 0.0 0.0 0.00 0.00 0.00 83 1015.7
20260508041316 63 117 0.0 0.0 0.00 0.00 0.00 83 1015.7
20260508040814 63 117 0.0 0.0 0.00 0.00 0.00 83 1015.7
20260508040316 63 117 0.0 0.0 0.00 0.00 0.00 83 1015.5
20260508035820 63 117 0.0 0.0 0.00 0.00 0.00 81 1015.4
20260508035815 63 117 0.0 0.0 0.00 0.00 0.00 82 1015.2
20260508035314 63 117 0.0 0.0 0.00 0.00 0.00 82 1015.2
20260508034319 64 117 0.0 0.0 0.00 0.00 0.00 81 1015.0
20260508034315 63 117 0.0 0.0 0.00 0.00 0.00 81 1015.3
20260508033315 64 117 0.0 0.0 0.00 0.00 0.00 80 1014.8
20260508032813 64 117 0.0 0.0 0.00 0.00 0.00 80 1014.7
20260508032313 63 117 0.0 0.0 0.00 0.00 0.00 80 1014.9
20260508031815 63 117 0.0 0.0 0.00 0.00 0.00 80 1014.9
20260508031312 63 117 0.0 0.0 0.00 0.00 0.00 80 1014.9
20260508030812 63 117 0.0 0.0 0.00 0.00 0.00 80 1014.7
20260508030312 63 117 0.0 0.0 0.00 0.00 0.00 81 1014.6
20260508025812 63 117 0.0 0.0 0.00 0.00 0.00 81 1014.6
20260508025320 63 117 0.0 0.0 0.00 0.00 0.00 81 1014.9
20260508025311 63 117 0.0 0.0 0.00 0.00 0.00 82 1014.6
20260508024813 63 117 0.0 0.0 0.00 0.00 0.00 81 1014.7
20260508023811 63 117 0.0 0.0 0.00 0.00 0.00 81 1014.7
20260508023311 63 117 0.0 0.0 0.00 0.00 0.00 81 1014.8
20260508022939 64 117 0.0 0.0 0.00 0.00 0.00 79 1015.0
20260508022817 63 117 0.0 0.0 0.00 0.00 0.00 80 1014.8
20260508022812 63 117 0.0 0.0 0.00 0.00 0.00 80 1015.0
20260508021812 63 117 0.0 0.0 0.00 0.00 0.00 80 1014.9
20260508021432 64 117 0.0 0.0 0.00 0.00 0.00 79 1014.9
20260508020309 64 117 0.0 0.0 0.00 0.00 0.00 79 1014.6
20260508015809 64 117 0.0 0.0 0.00 0.00 0.00 79 1014.4
20260508015310 64 117 0.0 0.0 0.00 0.00 0.00 78 1014.5
20260508014810 64 117 0.0 0.0 0.00 0.00 0.00 79 1014.3
20260508014309 64 117 0.0 0.0 0.00 0.00 0.00 79 1014.5
20260508013810 64 117 0.0 0.0 0.00 0.00 0.00 79 1014.7
20260508013311 64 117 0.0 0.0 0.00 0.00 0.00 78 1014.5
20260508012810 65 117 0.0 0.0 0.00 0.00 0.00 77 1014.5
20260508012310 65 117 0.0 0.0 0.00 0.00 0.00 77 1014.5
20260508011807 65 117 0.0 0.0 0.00 0.00 0.00 76 1014.4
20260508011307 65 117 0.0 0.0 0.00 0.00 0.00 76 1014.5
20260508010806 65 117 0.0 0.0 0.00 0.00 0.00 76 1014.6
20260508010310 66 117 0.0 0.0 0.00 0.00 0.00 76 1014.7
20260508010305 65 117 0.0 0.0 0.00 0.00 0.00 77 1014.6
20260508005923 66 117 0.0 0.0 0.00 0.00 0.00 76 1014.7
20260508004802 66 117 0.0 0.0 0.00 0.00 0.00 75 1014.7
20260508004302 66 117 0.0 0.0 0.00 0.00 0.00 74 1014.5
20260508003800 67 117 0.0 0.0 0.00 0.00 0.00 75 1014.4
20260508003259 67 117 0.0 0.0 0.00 0.00 0.00 74 1014.3
20260508002800 67 117 0.0 0.0 0.00 0.00 0.00 73 1014.4
20260508002306 67 117 0.0 0.0 0.00 0.00 0.00 72 1014.7
20260508002259 67 117 0.0 0.0 0.00 0.00 0.00 72 1014.6
20260508001258 68 117 0.0 0.0 0.00 0.00 0.00 71 1014.9
20260508000759 68 117 0.0 0.0 0.00 0.00 0.00 71 1015.1
20260508000305 68 117 0.0 2.0 0.00 0.00 0.00 72 1015.1
20260508000300 68 117 0.0 2.0 0.00 0.00 0.00 72 1015.3
20260507235259 68 117 0.0 0.0 0.00 0.00 0.00 73 1015.2
20260507234758 68 117 0.0 0.0 0.00 0.00 0.00 71 1014.9
20260507234259 68 117 0.0 0.0 0.00 0.00 0.00 71 1014.7
20260507233759 68 117 0.0 0.0 0.00 0.00 0.00 71 1014.5
20260507233258 68 117 0.0 0.0 0.00 0.00 0.00 70 1014.5
20260507232800 69 117 0.0 0.0 0.00 0.00 0.00 69 1014.6
20260507232258 69 117 0.0 0.0 0.00 0.00 0.00 69 1014.7
20260507231800 69 117 0.0 0.0 0.00 0.00 0.00 68 1014.9
20260507231259 69 117 0.0 0.0 0.00 0.02 0.00 68 1014.9
20260507230800 69 117 0.0 0.0 0.00 0.04 0.00 67 1015.0
20260507230257 69 117 0.0 0.0 0.00 0.05 0.00 66 1014.9
20260507225756 70 117 0.0 0.0 0.00 0.06 0.00 65 1015.0
20260507225258 70 117 0.0 0.0 0.00 0.06 0.00 65 1014.9
20260507224756 70 117 0.0 0.0 0.00 0.06 0.00 63 1015.1
20260507224255 70 117 0.0 0.0 0.00 0.06 0.00 62 1015.1
20260507223756 71 117 0.0 0.0 0.00 0.06 0.00 61 1015.2
20260507223750 71 117 0.0 0.0 0.00 0.06 0.00 61 1015.1
20260507222755 71 117 0.0 0.0 0.00 0.06 0.00 62 1015.4
20260507222749 71 117 0.0 0.0 0.00 0.06 0.00 62 1015.3
20260507221748 71 117 0.0 1.0 0.00 0.06 0.00 63 1015.4
20260507221253 71 103 0.0 1.0 0.00 0.06 0.00 61 1015.1
20260507221248 71 207 0.0 1.0 0.00 0.06 0.00 62 1015.5
20260507220248 71 106 0.0 1.0 0.00 0.06 0.00 61 1015.2
20260507215753 71 79 0.0 0.0 0.00 0.06 0.00 61 1015.1
20260507215748 71 79 0.0 0.0 0.00 0.06 0.00 62 1015.1
20260507214750 71 79 0.0 0.0 0.00 0.06 0.00 60 1015.3
20260507214248 71 79 0.0 0.0 0.00 0.06 0.00 62 1015.4
20260507213749 72 79 0.0 0.0 0.00 0.06 0.00 60 1015.5
20260507213252 71 79 0.0 0.0 0.00 0.06 0.00 60 1015.7
20260507213246 71 79 0.0 0.0 0.00 0.06 0.00 62 1015.6
20260507212246 71 79 0.0 0.0 0.00 0.06 0.00 60 1015.8
20260507211752 72 106 0.0 0.0 0.00 0.06 0.00 59 1015.9
20260507211748 71 79 0.0 0.0 0.00 0.06 0.00 58 1015.8
20260507210747 72 46 0.0 4.0 0.00 0.06 0.00 58 1016.1
20260507210248 71 39 1.0 4.0 0.00 0.06 0.00 61 1016.1
20260507205747 71 2 1.0 4.0 0.00 0.06 0.00 62 1016.0
20260507205248 71 320 0.0 6.0 0.00 0.06 0.00 59 1015.9
20260507205242 71 319 1.0 6.0 0.00 0.06 0.00 59 1015.9
20260507204243 71 339 1.0 6.0 0.00 0.06 0.00 59 1015.8
20260507203741 71 349 1.0 6.0 0.00 0.06 0.00 58 1015.8
20260507203240 72 136 0.0 4.0 0.00 0.06 0.00 60 1015.7
20260507202741 71 70 1.0 6.0 0.00 0.06 0.00 59 1015.8
20260507202241 72 320 0.0 6.0 0.00 0.06 0.00 58 1016.0
20260507201742 72 10 1.0 6.0 0.00 0.06 0.00 59 1016.1
20260507201241 72 330 2.0 6.0 0.00 0.06 0.00 57 1016.0
20260507200739 72 58 1.0 6.0 0.00 0.06 0.00 60 1016.0
20260507200239 72 20 0.0 5.0 0.00 0.06 0.00 62 1016.1
20260507195739 71 335 1.0 6.0 0.00 0.06 0.00 60 1016.2
20260507195245 71 70 1.0 5.0 0.00 0.06 0.00 55 1016.5
20260507195240 71 68 2.0 6.0 0.00 0.06 0.00 57 1016.1
20260507194736 71 66 2.0 6.0 0.00 0.06 0.00 57 1016.4
20260507194237 71 53 2.0 6.0 0.00 0.06 0.00 57 1016.4
20260507193237 72 44 0.0 4.0 0.00 0.06 0.00 57 1016.6
20260507192736 71 97 1.0 4.0 0.00 0.06 0.00 59 1016.8
20260507192236 71 348 1.0 6.0 0.00 0.06 0.00 58 1016.8
20260507191736 71 314 1.0 6.0 0.00 0.06 0.00 56 1017.0
20260507191242 71 55 3.0 6.0 0.00 0.06 0.00 55 1017.2
20260507191237 71 40 2.0 6.0 0.00 0.06 0.00 58 1017.1
20260507190855 72 79 2.0 6.0 0.00 0.06 0.00 55 1017.3
20260507185734 72 118 1.0 6.0 0.00 0.06 0.00 56 1017.2
20260507185234 71 75 1.0 6.0 0.00 0.06 0.00 58 1017.2
20260507184734 71 56 1.0 6.0 0.00 0.06 0.00 58 1017.1
20260507184234 72 59 1.0 5.0 0.00 0.06 0.00 58 1017.2
20260507183739 72 87 1.0 6.0 0.00 0.06 0.00 62 1017.0
20260507183735 72 63 1.0 6.0 0.00 0.06 0.00 59 1017.1
20260507182735 71 83 0.0 6.0 0.00 0.06 0.00 63 1017.0
20260507182235 71 8 1.0 6.0 0.00 0.06 0.00 61 1016.9
20260507181735 71 309 1.0 6.0 0.00 0.06 0.00 62 1017.0